This is the latest recevied weather packets stored in our database for station/object IU7URP-30. If no packets are shown the sender has not sent any weather packets the latest 10 day(s).
| Time | Temp. | Humidity | Pressure | Rain* | Wind** | Luminosity | Snow |
|---|---|---|---|---|---|---|---|
| 1777782265 | 5° C | 66% | 1023.7 hPa | - | - | - | - |
| 1777781365 | 5° C | 65% | 1023.8 hPa | - | - | - | - |
| 1777780465 | 5° C | 66% | 1023.6 hPa | - | - | - | - |
| 1777779564 | 4.44° C | 67% | 1023.5 hPa | - | - | - | - |
| 1777778664 | 5.56° C | 60% | 1023.5 hPa | - | - | - | - |
| 1777775064 | 5° C | 65% | 1023.7 hPa | - | - | - | - |
| 1777774039 | 5.56° C | 63% | 1023.7 hPa | - | - | - | - |
| 1777773139 | 6.11° C | 63% | 1023.8 hPa | - | - | - | - |
| 1777772239 | 6.67° C | 59% | 1024 hPa | - | - | - | - |
| 1777769523 | 6.11° C | 60% | 1024.1 hPa | - | - | - | - |
| 1777768623 | 6.67° C | 58% | 1024.2 hPa | - | - | - | - |
| 1777767723 | 6.11° C | 60% | 1024.3 hPa | - | - | - | - |
| 1777766822 | 6.11° C | 61% | 1024.5 hPa | - | - | - | - |
| 1777765922 | 6.67° C | 59% | 1024.6 hPa | - | - | - | - |
| 1777765022 | 7.22° C | 56% | 1024.7 hPa | - | - | - | - |
| 1777764121 | 7.22° C | 56% | 1024.9 hPa | - | - | - | - |
| 1777763221 | 6.67° C | 58% | 1025 hPa | - | - | - | - |
| 1777762321 | 6.11° C | 60% | 1025.1 hPa | - | - | - | - |
| 1777761420 | 7.22° C | 58% | 1025.2 hPa | - | - | - | - |
| 1777760520 | 7.22° C | 56% | 1025.2 hPa | - | - | - | - |
| 1777759620 | 7.78° C | 54% | 1025.2 hPa | - | - | - | - |
| 1777758719 | 8.33° C | 52% | 1025.1 hPa | - | - | - | - |
| 1777757819 | 8.33° C | 52% | 1025 hPa | - | - | - | - |
| 1777756919 | 8.89° C | 50% | 1024.9 hPa | - | - | - | - |
| 1777756019 | 9.44° C | 48% | 1024.9 hPa | - | - | - | - |
* Rain since midnight (hover to see other rain measurements)
** Current wind speed in m/s (hover to see current wind gust speed)